Погода Демьянское

Погода Демьянское : погода сейчас, прогноз погоды и архив. Всё, что Вы хотите узнать о погоде Демьянское!

Поиск расширенной информации на нашем сайте:

Другие новости

Новости СМИ2

Главная страница сайта

Новости сайта

03.07.2017

Напоминаем, что на нашем специализированном сайте Метеоцентр.Азия вы можете получить высокодетализированные автоматические прогнозы погоды по пунктам России, СНГ и мира в авиационном формате (включающие направление и скорость ветра, видимость, явления погоды, количество и форму облачности, нижнюю и верхнюю границу облачности).


Погода Демьянское - сегодня

Время (UTC), дата Ветер
(°,м/с) 
Видим.   Явления Облачность Т
(°С)
Тd
(°С)
f(%) Тe
(°С)
Pmin
(гПа)
dP
(гПа)
Po
(мм)
O2
(г/м3)
Тmin Tmax R s Состояние
почвы
06 17.05.18 260 (З) 10 км    9/0 верхняя 
[Cs]
+5.4 -8.5 36 +5  1015.9  -2.4  757  300  -7.2         
09 17.05.18 220 (ЮЗ) 10 км    10/1 1000 м верхняя 
[Sc|Ci fib]
+5.9 -5.8 43 +6  1013.3  -2.6  755  298           
15 17.05.18 010 (С) 10 км  {ливн. осадки}  8/5 1000 м верхняя 
[Sc|Ci fib]
+4.1 +0.2 76 +5  1010.4  -0.5  752  299    +7.6  0.0     
18 17.05.18 360 (С) 10 км  в посл. час ливневой дождь  10/10 600 м кучево-дожд. 
[Cb cap]
+0.4 +0.1 98 +1  1010.3  -0.1  752  303           
21 17.05.18 020 (С) 10 км  {ливн. осадки}  8/8 1000 м 
[Sc]
-0.3 -0.9 96 -1  1009.6  -0.8  752  303           
03 18.05.18 010 (С) 5-11{14}  10 км    8/4 1000 м верхняя 
[Sc|Ci fib]
-2.4 -8.5 63 -6  1013.8  2.3  755  308  -3.5    <0.5  мокрый или
старый снег
50-90% 
18 18.05.18 тихо ()   10 км    ясно 
-3.7 -8.5 69 -4  1024.3  1.5  763  312           
21 18.05.18 тихо ()   10 км    ясно 
-5.2 -7 87 -5  1024.7  0.3  763  314           
00 19.05.18 тихо ()   10 км    1/0 верхняя 
[Ci fib]
-4.3 -4.7 97 -4  1026  1.2  764  313           
03 19.05.18 270 (З) 10 км    ясно 
+4.2 -7.2 43 +4  1025.8  0.1  764  304  -6        влажная 
06 19.05.18 260 (З) 10 км    1/0 верхняя 
[Ci fib]
+7.8 -7.6 33 +8  1024.6  -1.1  763  300  -6         
09 19.05.18 260 (З) 10 км    3/0 верхняя 
[Ci fib]
+11.6 -7 26 +12  1023  -1.5  762  295           
12 19.05.18 230 (ЮЗ) 10 км    1/0 верхняя 
[Ci fib]
+13.5 -6.8 24 +15  1021.1  -1.8  761  293           
18 19.05.18 тихо ()   10 км    6/0 верхняя 
[Ci fib]
+5.3 -7.7 38 +5  1018.3  -1.4  758  301           
21 19.05.18 тихо ()   10 км    8/1 1000 м верхняя 
[Sc|Cs]
+4.8 -7.4 41 +5  1016  -2.3  757  300           
00 20.05.18 180 (Ю) 10 км    10/8 1000 м средняя, верхняя 
[Sc|Ac As|Ci fib]
+6.6 -4.7 44 +8  1012.8  -3.1  754  297           
03 20.05.18 160 (Ю) 4000 м  слаб. ливневой дождь  10/8 600 м кучево-дожд., средняя 
[Cb cap|Ac und]
+6.4 +4.6 88 +6  1009.8  -2.9  752  295  +4.7    0.6    влажная 
06 20.05.18 220 (ЮЗ) 10 км  {ливн. осадки}  9/6 1000 м верхняя 
[Sc|Cs]
+15.6 +6.4 54 +17  1007.4  -2.3  750  285           
09 20.05.18 230 (ЮЗ) 10 км    5/0 средняя, верхняя 
[Ac trans|Ci fib]
+21.4 +9.1 45 +21  1005.1  -2.1  749  278           
12 20.05.18 230 (ЮЗ) 10 км    8/0 верхняя 
[Ci sp]
+25.6 +9.3 36 +26  1003.1  -1.8  747  274           
15 20.05.18 170 (Ю) 1{11}  4000 м  гроза, ливневой дождь  10/9 600 м кучево-дожд., средняя 
[Cb cap|Ac und]
+14.4 +14.4 100 +24  1004.3  748  283    +25.6     
18 20.05.18 тихо ()   10 км  местами туман поземный{гроза, ливн. осадки}  9/9 1000 м 
[Sc]
+12.5 +12.5 100 +17  1003  -1.4  747  285           
21 20.05.18 270 (З) 10 км    10/8 1000 м средняя 
[Sc|Ac und]
+13.3 +13 98 +21  1002.1  -0.9  746  284           
00 21.05.18 340 (С) 2{10}  10 км    10/10 600 м 
[Sc]
+8.6 +7.7 94 +9  1005.7  3.5  749  291           
03 21.05.18 330 (СЗ) 10 км    10/10 600 м 
[Sc]
+6.3 +5.7 96 +6  1009.5  3.7  752  295           
Время (UTC), дата Ветер
(°,м/с) 
Видим.   Явления Облачность Т
(°С)
Тd
(°С)
f(%) Тe
(°С)
Pmin
(гПа)
dP
(гПа)
Po
(мм)
O2
(г/м3)
Тmin Tmax R s Состояние
почвы

Для получения пояснительной информации подведите курсор к названию столбца.

ПОГОДА Демьянское - архив

Всё, что Вы хотите узнать о погоде Демьянское - удобно и подробно!

Выберите нужную дату (начиная с 1 января 2015* года) и нажмите кнопку "Найти".
Будут отображены архивные сводки погоды по пункту Демьянское, начиная с указанной даты.


Отображать данные в формате CSV (для использования в таблицах Excel)


Внимание! Наш архив погоды предназначен исключительно для личного некоммерческого использования в познавательных целях. Если Вам необходимы официальные справки о состоянии погоды (для производственных, юридических, коммерческих и т.п. целей), обращайтесь в органы Росгидромета.

*Примечание: данная дата относится к архиву по метеостанциям СССР (Россия, СНГ, Балтия).
Архив по метеостанциям Зарубежной Европы и Азии (кроме Китая) хранится 10 дней, по другим регионам земного шара (Китай, Африка, Америка, Австралия, Океания) - 1 день.

Демьянское - район местоположения метеостанции


Название, широта, долгота, высота метеостанции:
Демьянское 59.6°ш. 69.3°д. 57 м над ур. моря [Российская Федерация]

Дополнительная информация

В oтличие oт бoльшинства пoгoдных сайтoв мы публикуем пoдрoбную метеoинфoрмацию в детальнoм прoфессиoнальнoм фoрмате.

Характеристики температуры и влажнoсти вoздуха измеряются на высoте 2 м в тени вдали oт зданий и деревьев.
Скoрoсть ветра измеряется на высoте 10 м (на урoвне рoста челoвека скoрoсть ветра ниже в 1.5-2 раза). Если метеoстанция нахoдится в гoрoде или в лесу, тo скoрoсть ветра занижена на 2-4 м/с пo сравнению с oткрытым местoм. Скoрoсть ветра над акватoриями крупных рек и oзёр, а также на вершинах хoлмoв на 2-5 м/с выше, чем в oбычных услoвиях.
Атмoсфернoе давление в разных тoчках местнoсти мoжет значительнo oтличаться oт давления на метеoстанции, в зависимoсти oт услoвий рельефа (при пoдъёме на 10 м давление пoнижается примернo на 1 мм рт.ст.).